Regional Weather Roundup
Issued by NWS Kansas City/Pleasant Hill, MO

Home | Current Version | Previous Version | Text Only | Print | Product List | Glossary On
Versions: 1 2 3 4 5 6 7 8 9 10 11 12 13 14 15 16 17 18 19 20 21 22 23 24 25 26 27 28 29 30 31 32 33 34 35 36 37 38 39 40 41 42 43 44 45 46 47 48 49 50
000
ASUS43 KEAX 302310
RWREAX

WEATHER ROUNDUP FOR EASTERN KANSAS AND NORTHWEST MISSOURI
NATIONAL WEATHER SERVICE KANSAS CITY/PLEASANT HILL MO
600 PM CDT MON MAR 30 2015

KSZ040-057-103>105-MOZ028-029-037-043-310000-
...KANSAS CITY METROPOLITAN AREA...

CITY           SKY/WX    TMP DP  RH WIND       PRES   REMARKS
K.C. INTL      MOSUNNY   71  31  22 SW13      29.96F
K.C. DOWNTOWN  SUNNY     73  29  19 SW16G22   29.96F
LEES SUMMIT    SUNNY     70  32  24 SW16      29.98F
OLATHE - IXD   SUNNY     70  31  23 SW14      29.98F
OLATHE - OJC   SUNNY     70  31  23 SW13      29.98F
LAWRENCE       SUNNY     73  28  18 SW17      29.96F

$$

MOZ001>008-011>017-020>025-030>033-038>040-044>046-053-054-310000-
...NORTHERN AND CENTRAL MISSOURI...

CITY           SKY/WX    TMP DP  RH WIND       PRES   REMARKS
ST. JOSEPH     PTSUNNY   72  28  19 SW15      29.94F
MOSBY          PTCLDY    72  27  18 S12G20    29.96F
WARRENSBURG    MOSUNNY   70  32  24 S15       29.98F
WHITEMAN AFB   MOSUNNY   69  33  26 SW14      29.97F
CLINTON        SUNNY     72  34  25 SW12      30.00F
SEDALIA        MOSUNNY   70  27  20 SW16      29.99F
WARSAW         NOT AVBL
MARSHALL       PTSUNNY   70  36  28 S10       29.98F
CHILLICOTHE      N/A     71  30  21 SW15G23   29.95F
MOBERLY        SUNNY     70  28  21 SW14G22   29.97F
KIRKSVILLE     SUNNY     69  32  25 SW12G25   29.94F

$$

MOZ041-047>049-056>058-063>065-088>090-097-310000-
...EASTERN AND SOUTHERN MISSOURI...

CITY           SKY/WX    TMP DP  RH WIND       PRES   REMARKS
ST. LOUIS INTL MOSUNNY   71  26  18 SW9       30.01F
SPIRIT OF STL  MOSUNNY   70  25  18 W13       29.99F
COLUMBIA       PTSUNNY   65  31  28 S8        29.99F
JEFFERSON CITY PTSUNNY   71  26  18 SW10      29.99F
MEXICO         MOSUNNY   72  37  28 SW15G21   30.00F
HANNIBAL       SUNNY     70  21  16 SW12      29.96F
ROLLA          SUNNY     68  25  19 SW13      30.00F
LEBANON        SUNNY     70  25  18 S10       30.04F
OSAGE BEACH    SUNNY     72  27  18 SW10G17   30.01F
SPRINGFIELD    SUNNY     70  32  24 S9        30.03F
BRANSON        SUNNY     73  34  23 CALM      30.06F
NEVADA         SUNNY     70  37  30 SW10      30.02F
JOPLIN         SUNNY     72  32  23 SW8       30.02F
WEST PLAINS    SUNNY     68  30  24 SW9       30.07F

$$

IAZ060-094-KSZ022-034>040-054-083-096-NEZ052-066-093-310000-
...KANSAS...SOUTHEAST NEBRASKA AND IOWA...

CITY           SKY/WX    TMP DP  RH WIND       PRES   REMARKS
TOPEKA         SUNNY     75  30  19 SW10      29.95F
MANHATTAN      SUNNY     76  37  24 SW17      29.93F
EMPORIA        SUNNY     75  32  20 SW18      29.97F
CHANUTE        SUNNY     72  32  23 S13       30.00F
WICHITA        MOSUNNY   76  37  24 S16       29.98F
OMAHA          PTSUNNY   77  32  19 SW16      29.86F
LINCOLN        PTSUNNY   78  29  16 W14       29.90F
FALLS CITY     PTSUNNY   76  27  16 SW16      29.91F
LAMONI         SUNNY     71  30  21 SW18G29   29.91F
DES MOINES     PTSUNNY   75  26  16 W21G33    29.84F

$$




USA.gov is the U.S. government's official web portal to all federal, state and local government web resources and services.